Regional Weather Roundup
Issued by NWS

Home | Current Version | Previous Version | Graphics & Text | Print | Product List | Glossary On
Versions: 1 2 3 4 5 6 7 8 9 10 11 12 13 14 15 16 17 18 19 20 21 22 23 24 25 26 27 28 29 30 31 32 33 34 35 36 37 38 39 40 41 42 43 44 45 46 47 48 49 50
285
ASUS43 KDTX 260201
RWRMI
MICHIGAN HOURLY REGIONAL WEATHER ROUNDUP
NATIONAL WEATHER SERVICE DETROIT/PONTIAC MI
1000 PM EDT SUN SEP 25 2016

NOTE: "FAIR" INDICATES FEW OR NO CLOUDS BELOW 12,000 FEET WITH NO
SIGNIFICANT WEATHER AND/OR OBSTRUCTION TO VISIBILITY.

MIZ047>049-052>055-059>063-066>070-074>076-081>083-260300-
SOUTHEAST LOWER MICHIGAN

CITY           SKY/WX    TMP DP  RH WIND       PRES   REMARKS
ADRIAN         CLEAR     61  54  77 SE5       30.04F
ALMA           PTCLDY    64  51  60 S6        29.97F
ANN ARBOR      CLEAR     60  51  72 E5        30.04F
BAD AXE        PTCLDY    60  51  72 S8        30.06R
CARO           PTCLDY    60  51  70 SE7       30.03S
DETROIT CITY   CLEAR     63  54  72 SE6       30.06S
DETROIT        PTCLDY    62  51  67 E5        30.05F
FLINT          CLEAR     59  48  67 SE8       30.03F
GROSSE ILE     CLEAR     62  53  72 E5        30.04F
HILLSDALE      CLOUDY    63  50  63 E8        30.01F
HOWELL         CLEAR     60  48  64 SE9       30.02F

CITY           SKY/WX    TMP DP  RH WIND       PRES   REMARKS
JACKSON        MOCLDY    63  52  67 SE10      30.01F
LAMBERTVILLE   CLEAR     64  56  74 SE3       30.04F
LANSING        CLEAR     63  46  54 SE16      30.00F
LAPEER         FAIR      59  49  70 SE9       30.05F
MASON          CLEAR     61  49  64 SE6       30.01F
MONROE         CLEAR     66  58  76 SE6       30.04S
MT. CLEMENS    PTCLDY    61  53  73 E8        30.04F
PONTIAC        CLOUDY    62  48  60 SE10      30.04S
PORT HOPE        N/A     64  53  67 S9G18     30.03F
PORT HURON     CLEAR     57  50  77 SE3       30.07S
TRI CITIES     CLOUDY    63  50  62 SE10      30.00F
MIDLAND        FAIR      64  50  61 SE8       29.99F
TROY           CLEAR     64  47  54 E3        30.07F
SAGINAW HB     PTCLDY    61  48  63 SE9       30.00F
$$
MIZ043>046-050>051-056>058-064>065-071>073-077>080-260300-
SOUTHWEST LOWER MICHIGAN

CITY           SKY/WX    TMP DP  RH WIND       PRES   REMARKS
BATTLE CREEK   CLOUDY    69  52  54 SE10      29.97F
BENTON HARBOR  MOCLDY    75  65  70 SE8       29.91F
BIG RAPIDS     LGT RAIN  68  51  55 SE9       29.93F
COLDWATER      CLOUDY    67  52  57 SE10G16   29.99F
FREMONT        DRIZZLE   67  53  59 SE7       29.91F
HOLLAND        CLOUDY    72  61  68 SE13      29.91F
GRAND RAPIDS   MOCLDY    67  51  56 SE13      29.93F
IONIA          FAIR      64  47  54 SE14      29.95F
KALAMAZOO      MOCLDY    71  56  58 S7        29.95F
LUDINGTON      CLOUDY    65  61  88 E3        29.86F
MARSHALL       MOCLDY    66  52  60 SE12      29.99S
MUSKEGON       LGT RAIN  68  64  87 S9        29.90S
SOUTH HAVEN    CLOUDY    75  65  71 SE7       29.91F
$$
MIZ016>042-260300-
NORTHERN LOWER MICHIGAN

CITY           SKY/WX    TMP DP  RH WIND       PRES   REMARKS
ALPENA         PTCLDY    63  53  70 SE13      30.00F
BEAVER ISLAND  HVY RAIN  62  60  93 SE7       29.88S
BELLAIRE       MOCLDY    68  53  57 SE13G29   29.88F
CADILLAC       CLOUDY    66  52  61 SE15      29.93F
CHARLEVOIX     CLOUDY    67  54  62 SE12G20   29.89F
FRANKFORT      LGT RAIN  65  58  78 SE8       29.85F
GAYLORD        CLOUDY    64  51  62 SE14      29.94F
GRAYLING       CLOUDY    64  54  71 SE9       29.96F
HARBOR SPRINGS CLOUDY    63  57  81 E7        29.90F
HOUGHTON LAKE  CLOUDY    65  51  60 SE10      29.97F
MANISTEE       LGT RAIN  68  57  68 S10       29.87F
OSCODA         MOCLDY    64  53  67 S9G17     30.01S
PELLSTON       LGT RAIN  62  56  80 SE10      29.92F
ROGERS CITY    CLOUDY    64  54  68 SE14G20   29.98F
TRAVERSE CITY  CLOUDY    70  53  54 SE10G24   29.86F
$$
MIZ007>008-015-260300-
EASTERN UPPER MICHIGAN

CITY           SKY/WX    TMP DP  RH WIND       PRES   REMARKS
KINROSS        LGT RAIN  62  56  80 SE17G26   29.94F
MACKINAC ISLAN LGT RAIN  61  55  80 SE10G18   29.92F
NEWBERRY       LGT RAIN  58  58  97 SE8       29.88S
S. S. MARIE    CLOUDY    63  56  78 SE10G20   29.93F
MUNISING         N/A     63  62  97 S5        29.80F
$$
MIZ004>006-011>014-085-260300-
CENTRAL UPPER MICHIGAN

CITY           SKY/WX    TMP DP  RH WIND       PRES   REMARKS
MANISTIQUE     LGT RAIN  63  61  93 SE13G21   29.85F
ESCANABA       CLOUDY    66  65  96 S8        29.82S
MENOMINEE        N/A    N/A N/A N/A MISG        N/A
SAWYER-GWINN   CLOUDY    63  61  94 S10       29.81F
$$
MIZ001>003-009>011-084-260300-
WESTERN UPPER MICHIGAN

CITY           SKY/WX    TMP DP  RH WIND       PRES   REMARKS
IRON MOUNTAIN  CLOUDY    65  62  90 S7        29.81S
HOUGHTON       CLOUDY    61  54  77 W17       29.77S
COPPER HARBOR    N/A     65  62  90 SW6       29.74F
IRONWOOD       CLOUDY    60  52  74 SW13      29.81F
$$

ABBREVIATIONS USED IN REMARKS
   TC - TEMPERATURE IN CELSIUS
  WCI - WIND CHILL INDEX
   HX - HEAT INDEX
  VSB - VISIBILITY





USA.gov is the U.S. government's official web portal to all federal, state and local government web resources and services.